Location: Newark
(49.1000°N, 0.4667°W)
Time: 10:51:29
(UTC+00:00)

BEESAT 3 - Pass Details

Date: 06 July 2020
Orbit: 482 x 522 km, 64.9° (Epoch: 10 August)

Event Time Altitude Azimuth Distance (km) Brightness Sun altitude
Rises 23:29:23 0° 276° (W) 2,651 ? -17.9°
Reaches altitude 10° 23:32:29 10° 302° (WNW) 1,767 ? -17.9°
Maximum altitude 23:34:38 14° 335° (NNW) 1,527 ? -18.0°
Drops below altitude 10° 23:36:48 10° 8° (N) 1,769 ? -18.0°
Sets 23:39:54 0° 35° (NE) 2,657 ? -18.1°
